Other Public Products
Issued by NWS Grand Forks, ND

Home | Current Version | Previous Version | Graphics & Text | Print | Product List | Glossary On
Versions: 1 2 3 4 5 6 7 8 9 10 11 12 13 14 15 16 17 18 19 20 21 22 23 24 25 26 27 28 29 30 31 32 33 34 35 36 37 38 39 40 41 42 43 44 45 46 47 48 49 50
000
FPUS83 KFGF 270210
OPUFGF
PRAIRIE TO PINES WEATHER ROUNDUP
NATIONAL WEATHER SERVICE EASTERN NORTH DAKOTA/GRAND FORKS ND
900 PM CDT SUN MAR 26 2017

 **SATELLITE DATA USED TO AUGMENT SKY COVER AT AUTOMATED STATIONS**
 *****  WEATHER ACROSS EASTERN NORTH DAKOTA  *****

CITY           SKY/WX    TMP DP  RH WIND       PRES   REMARKS
GRAND FORKS    FAIR      37  36  96 CALM      29.95R
GRAND FORKS AF FAIR      35  35  99 CALM      29.95R FOG
GRAND CITY NWS NOT AVBL
BUXTON         NOT AVBL
DEVILS LAKE    FAIR      41  38  89 E10       29.93S
FARGO          CLOUDY    39  37  92 E3        29.95R
WAHPETON ARPT    N/A     37  34  87 CALM      29.95F
$$

 *****  WEATHER ACROSS CENTRAL AND WESTERN NORTH DAKOTA  *****

CITY           SKY/WX    TMP DP  RH WIND       PRES   REMARKS
JAMESTOWN      FAIR      41  36  82 SE3       29.92R
BISMARCK       FAIR      46  35  65 SE5       29.92R
MINOT          FAIR      47  39  74 SE8       29.87S
MINOT AFB      FAIR      42  37  84 SE10      29.86F
GARRISON         N/A     51  35  54 SW12G20   29.89R
WILLISTON      FAIR      51  25  36 NW12      29.87R
DICKINSON      FAIR      46  27  47 CALM      29.86S
HETTINGER      FAIR      43  34  70 SW5       29.90R
$$

 *****  OTHER OBSERVATIONS NORTHEAST NORTH DAKOTA  *****

CITY           SKY/WX    TMP DP  RH WIND       PRES   REMARKS
WALHALLA       NOT AVBL
LANGDON        FAIR      34  34 100 E6        29.94S FOG
CAVALIER       FAIR      32  32 100 W3        29.95F FOG
GRAFTON        FAIR      36  36 100 N7        29.98S FOG
CANDO          NOT AVBL
FORT TOTTEN      N/A     42  41  97 E2        29.95S
ROLLA          FAIR      36  36 100 CALM      29.92S
RUGBY          NOT AVBL
 ***** THE ABOVE OBSERVATIONS ARE NON NWS ARE NOT QUALITY
        CONTROLLED AND MAY MIS-REPORT RAIN FOR SNOW...
$$

 *****  OTHER OBSERVATIONS SOUTHEAST NORTH DAKOTA *****

CITY           SKY/WX    TMP DP  RH WIND       PRES   REMARKS
COOPERSTOWN    FAIR      39  39 100 S6        29.94R
VALLEY CITY    FAIR      41  41 100 CALM      29.94F
OAKES          NOT AVBL
GWINNER        CLOUDY    41  39  93 MISG      29.94S
SHEYENNE NWR     N/A     38  35  89 SE2       29.95S
BUFFALO        NOT AVBL
WYNDMERE       NOT AVBL
 ***** THE ABOVE OBSERVATIONS ARE NON NWS ARE NOT QUALITY
       CONTROLLED AND MAY MIS-REPORT RAIN FOR SNOW...
$$

  *****  WEATHER ACROSS NORTHERN MINNESOTA  *****

CITY           SKY/WX    TMP DP  RH WIND       PRES   REMARKS
FLAG ISLAND    FAIR      34  30  86 S3        29.93S
WARROAD        FAIR      34  30  86 SW3       29.95S
ROSEAU         FAIR      37  34  87 CALM      29.94F
HALLOCK        FAIR      36  36 100 CALM      29.95F FOG
THF RVR FALLS  FAIR     N/A N/A N/A CALM      29.96R
HALSTAD          N/A     40  37  92 S2          N/A
FOSSTON        CLOUDY    37  36  93 W5        29.95S
BAUDETTE       FAIR      34  31  88 MISG      29.94R
WASKISH        CLOUDY    36  32  87 CALM      29.94S
CROOKSTON      FAIR      39  39 100 CALM      29.96S FOG
$$
  *****  WEATHER ACROSS CENTRAL AND WEST MINNESOTA  *****

CITY           SKY/WX    TMP DP  RH WIND       PRES   REMARKS
BEMIDJI        CLOUDY    40  32  74 CALM      29.93S
PARK RAPIDS    CLOUDY    43  31  62 CALM      29.92S
WADENA         MOCLDY    39  32  75 CALM      29.93S
DETROIT LAKES  FAIR      41  36  81 NW3       29.95S
MOORHEAD       CLOUDY    41  37  87 CALM      29.96S
FERGUS FALLS   CLOUDY    39  36  87 NW6       29.98S
ELBOW LAKE     CLOUDY    40  37  87 NW5       29.95S
MORRIS MN      FAIR      41  37  87 N3        29.93F
STAPLES        FAIR      39  32  75 CALM      29.94R
WHEATON        FAIR      43  36  75 CALM      29.97S
$$
  *****  WEATHER ELSEWHERE ACROSS MINNESOTA  *****

CITY           SKY/WX    TMP DP  RH WIND       PRES   REMARKS
DULUTH         CLOUDY    33  33 100 CALM      29.93S FOG
INTRNTL FALLS  CLOUDY    36  29  75 CALM      29.93S
ELY            FAIR      30  28  93 CALM      29.92R
CLOQUET        FOG       34  32  93 CALM      29.94S VSB 1/4
BRAINERD       FAIR      39  32  76 NW3       29.93S
HIBBING        FAIR      31  30  96 CALM      29.92S
ALEXANDRIA     MOCLDY    43  35  73 N3        29.94R
SAINT CLOUD    CLOUDY    37  37 100 CALM      29.94S
MINNEAPOLIS    DRIZZLE   40  36  86 N7        29.93S
$$

  *****  WEATHER ACROSS SOUTH DAKOTA  *****

CITY           SKY/WX    TMP DP  RH WIND       PRES   REMARKS
SIOUX FALLS    CLOUDY    44  39  82 CALM      29.96R
BROOKINGS      CLOUDY    39  37  92 SE3       29.94R
WATERTOWN      MOCLDY    39  35  86 CALM      29.92S
HURON          FAIR      41  37  86 CALM      29.94R
SISSETON         N/A     40  38  93 CALM      29.94R
ABERDEEN       MOCLDY    40  34  79 E3        29.94S
MITCHELL       CLOUDY    44  38  79 W5        29.96R
PIERRE         MOCLDY    41  37  86 W6        29.92S
MOBRIDGE       CLOUDY    48  37  65 E6        29.89S
RAPID CITY     CLOUDY    42  39  89 CALM      29.93S
$$

  *****  SOME WEATHER IN NEARBY STATES *****

CITY           SKY/WX    TMP DP  RH WIND       PRES   REMARKS
GLASGOW MT     FAIR      46  24  42 NE5       29.87S
GREAT FALLS MT FAIR      49  20  31 CALM      29.81R
CHEYENNE WY    MOCLDY    40  33  76 NE5       29.96R
SCOTTSBLUFF NE FAIR      43  33  68 N5        29.93F
OMAHA NE       CLOUDY    49  41  74 CALM      29.97R
DES MOINES IA  DRIZZLE   46  44  93 NW3       29.95R FOG
DAVENPORT IA   CLOUDY    48  46  93 W9        29.92R
CHICAGO IL     DRIZZLE   55  52  89 SW6       29.86R
EAU CLAIRE WI  CLOUDY    42  38  85 NW3       29.90S
LA CROSSE WI   CLOUDY    42  40  92 N6        29.90F
$$

  *****  SOME NATIONAL WEATHER *****

CITY           SKY/WX    TMP DP  RH WIND       PRES   REMARKS
LA GUARDIA NY  DRIZZLE   41  37  86 NE14      30.35F FOG
RALEIGH NC     CLOUDY    69  52  54 S13       30.16R
ATLANTA GA     FAIR      69  54  58 SW3       30.07R
NEW ORLEANS LA FAIR      72  67  84 SE9       30.00R
OKLAHOMA CITY  FAIR      65  59  81 SE10      29.67S
ALBUQUERQUE NM FAIR      60  22  23 N12       29.97R
SALT LAKE CITY CLOUDY    52  30  43 S7        29.97S
LOS ANGELES CA FAIR      59  53  80 W10       30.02F
BOISE ID       CLOUDY    50  35  56 E13       29.88F
SEATTLE WA     CLOUDY    48  44  86 SE7       29.75R
$$

*** WEATHER ACROSS MANITOBA...SASKATCHEWAN AND ONTARIO ***
                ***ONTARIO***

CITY           SKY/WX    TMP DP  RH WIND       PRES   REMARKS
GERALDTON      CLOUDY    32  30  93 S3        29.90F
THUNDER BAY    CLOUDY    32  32 100 E5        29.95S
SIOUX LOOKOUT  PTCLDY    28  28 100 CALM      29.91S
TORONTO        CLOUDY    41  37  87 E7        29.98F
BIG TROUT LK   CLOUDY    36  27  69 NW10      29.90R
PICKLE LAKE    PTCLDY    36  27  69 SW5       29.88R
DRYDEN         CLOUDY    37  32  81 SW6       29.91S
KENORA         NOT AVBL
$$
                *** MANITOBA***

CITY           SKY/WX    TMP DP  RH WIND       PRES   REMARKS
BRANDON        CLOUDY    36  32  87 N6        29.95R
DAUPHIN        LGT RAIN  36  32  87 SE7       29.94F
ISLAND LAKE    CLEAR     28  21  74 NW6       29.96R WCI  22
PILOT MOUND      N/A     34  32  93 SE8         N/A
THE PAS        PTCLDY    28  19  69 CALM      30.01R
THOMPSON       CLOUDY    23  18  80 N5        30.03R WCI  17
WINNIPEG       CLEAR     36  32  87 NE7       29.97R
LYNN LAKE      CLOUDY    23  18  80 E3        30.03R
CHURCHILL      LGT SNOW  12  10  92 N15       30.05S DRFTSNOWWCI  -4
GILLAM         FLURRIES  18  14  86 NW8       30.01R WCI   7
$$
                ***SASKATCHEWAN***

CITY           SKY/WX    TMP DP  RH WIND       PRES   REMARKS
ESTEVAN        MOCLDY    39  36  87 E7        29.87S
KINDERSLEY     CLOUDY    34  32  93 E12       29.87S
LLOYDMINSTER   PTCLDY    37  32  81 SE9       29.87R
PRINCE ALBERT  MOCLDY    28  23  80 SE5       29.96R WCI  23
REGINA         PTCLDY    45  27  49 N5        29.85S
YORKTON        CLEAR     37  34  87 SE8       29.88R



USA.gov is the U.S. government's official web portal to all federal, state and local government web resources and services.